GEFSMW_con_probscp_216.txt.gz
Probability
12 14 16 18 20 21 21 21 22 23 24 27 28 26 22 20 18 17 20 23 22 21 22 24 25 27 27 25 22 19 17 16 14 11 9 7 6 6 5 4 4 4 3
11 12 13 15 18 20 20 21 22 22 22 23 25 24 21 19 16 16 20 22 21 20 20 21 22 24 24 22 20 17 15 14 12 11 8 6 4 4 4 4 4 4 3
10 10 10 11 15 17 18 18 19 19 20 19 20 21 20 16 15 15 18 20 19 16 16 18 20 19 18 17 15 14 11 9 9 9 8 6 4 5 6 5 4 3 3
10 9 9 11 12 13 13 14 16 17 17 17 18 19 18 15 14 15 17 17 15 13 13 14 16 15 12 11 12 11 9 7 7 7 7 6 5 6 8 7 5 4 4
10 10 10 11 11 10 11 12 14 15 16 17 17 17 16 13 13 15 15 14 12 10 9 9 10 10 9 9 11 10 9 8 7 7 6 6 7 7 8 7 6 6 5
9 10 11 12 11 10 11 12 13 14 15 16 16 15 13 11 11 12 13 12 11 10 7 6 6 6 7 8 9 9 8 9 8 7 6 7 7 7 7 5 5 5 5
7 10 12 12 12 11 10 10 9 10 12 13 14 15 13 11 10 10 11 11 11 9 7 5 4 4 4 5 7 7 7 7 7 6 7 8 7 7 7 5 4 4 4
5 8 11 10 10 9 8 6 4 5 8 10 12 13 12 11 10 10 9 10 9 7 6 5 4 3 4 5 6 6 5 5 5 4 5 7 7 6 6 6 5 4 4
3 5 7 6 5 5 5 4 3 4 6 8 9 9 10 10 10 9 8 8 8 6 5 4 3 3 4 5 5 4 3 2 2 3 4 6 6 6 7 7 7 6 5
1 2 3 2 2 2 3 4 5 6 6 7 6 6 7 8 8 7 7 7 7 7 6 4 3 3 3 4 4 3 1 0 1 2 3 5 7 7 8 9 11 11 9
0 1 1 0 1 2 3 3 4 5 6 6 6 6 6 7 6 6 6 7 7 7 6 5 3 2 2 3 2 1 0 0 1 2 3 5 7 9 9 11 13 13 13
1 1 1 1 2 2 2 2 2 3 4 4 5 6 6 6 6 6 6 6 6 6 6 5 3 1 1 2 1 0 0 0 0 1 2 4 7 9 11 11 11 11 11
2 2 2 2 2 1 2 2 3 3 3 3 4 5 6 6 6 6 6 6 6 6 6 5 3 1 0 1 1 0 0 0 0 1 1 3 6 9 10 10 8 7 7
3 3 2 1 1 1 1 2 3 3 3 3 3 3 4 5 6 6 6 6 6 6 6 6 3 1 0 0 0 0 1 1 1 0 1 3 5 6 8 7 6 6 6
2 1 1 0 0 0 1 1 1 2 2 1 1 1 1 2 5 6 6 6 6 6 6 6 4 2 1 0 0 0 1 2 2 2 2 3 3 3 3 3 4 5 6
1 0 0 0 0 0 0 0 0 1 1 0 0 0 0 1 2 3 4 5 6 6 6 6 4 3 1 0 0 0 1 2 2 2 2 1 1 0 1 1 1 3 3
0 0 0 0 0 0 0 0 0 0 0 0 0 0 0 0 1 1 1 2 3 5 6 5 4 4 3 1 0 0 1 1 1 1 1 0 0 0 0 0 0 1 1
1 1 0 0 0 0 0 0 0 0 0 0 0 0 0 0 0 0 0 0 1 3 3 3 4 4 3 1 0 0 0 0 0 0 0 0 0 0 1 0 0 0 0
0 0 0 0 0 0 0 0 0 0 0 0 0 0 0 0 0 0 0 0 1 1 1 1 2 3 3 1 0 0 0 0 0 0 0 0 0 0 0 0 0 0 0
0 0 0 0 0 0 0 0 0 0 0 0 0 0 0 0 0 0 0 0 0 0 0 0 1 2 2 1 0 0 0 0 0 0 0 0 0 0 0 0 0 0 0
0 0 0 0 0 0 0 0 0 0 0 0 0 0 0 0 0 0 0 0 0 0 0 0 0 1 1 0 0 0 0 0 0 0 0 0 0 0 0 0 0 0 0
0 0 0 0 0 0 0 0 0 0 0 0 0 0 0 0 0 0 0 0 0 0 0 0 0 0 0 0 0 0 0 0 0 0 0 0 0 0 0 0 0 0 0
0 0 0 0 0 0 0 0 0 0 0 0 0 0 0 0 0 0 0 0 0 0 0 0 0 0 0 0 0 0 0 0 0 0 0 0 0 0 0 0 0 0 0
0 0 0 0 0 0 0 0 0 0 0 0 0 0 0 0 0 0 0 0 0 0 0 0 0 0 0 0 0 0 0 0 0 0 0 0 0 0 0 0 0 0 0
0 0 0 0 0 0 0 0 0 0 1 0 0 0 0 0 0 0 0 0 0 0 0 0 0 0 0 0 0 0 0 0 0 0 0 0 0 0 0 0 0 0 0
0 0 0 0 0 0 0 0 0 0 1 0 0 0 0 0 0 0 0 0 0 0 0 0 0 0 0 0 0 0 0 0 0 0 0 0 0 0 0 0 0 0 0

GEFSMW_con_probscp_222.txt.gz
Probability
21 22 22 24 29 35 37 39 41 44 43 38 33 33 34 32 28 28 29 29 27 27 27 27 27 25 24 23 23 20 17 15 15 14 10 9 11 12 12 11 12 13 14
23 25 25 26 29 33 36 38 40 42 42 37 32 31 32 31 30 31 30 27 25 24 25 26 25 24 23 23 22 20 15 12 13 11 8 7 10 11 10 10 11 11 13
26 28 29 27 28 30 31 33 36 39 38 33 27 24 26 28 29 30 27 24 21 21 23 22 21 21 21 22 21 18 13 10 8 6 5 5 7 8 9 9 9 8 9
27 29 31 29 27 26 27 29 33 35 32 26 21 20 21 22 23 23 22 19 17 18 20 20 18 19 20 20 18 16 13 9 5 3 3 4 4 5 6 7 6 5 5
25 28 29 28 26 25 25 27 30 30 26 21 19 19 19 18 18 18 17 15 14 15 16 18 18 18 19 17 15 14 11 8 4 3 3 4 4 4 4 4 3 3 3
25 25 26 26 25 23 21 23 26 25 21 17 17 18 18 16 15 15 15 13 12 12 14 16 17 16 14 12 11 10 9 7 5 4 4 4 4 4 3 3 2 2 2
25 25 23 23 22 20 19 19 21 21 20 17 15 15 15 14 13 14 14 14 13 13 14 16 16 13 10 8 8 7 7 7 7 6 5 4 3 3 3 3 2 1 1
24 23 21 20 21 20 18 17 18 19 19 15 13 12 13 11 11 13 15 14 14 14 15 16 14 11 8 7 7 7 7 7 7 7 6 4 2 2 2 3 2 1 0
20 18 17 17 19 19 17 15 16 17 15 12 9 10 10 10 11 14 15 14 13 13 14 14 12 10 8 7 8 7 6 7 8 7 5 3 1 0 1 1 2 2 1
13 12 12 13 15 15 14 12 12 13 12 10 8 8 8 9 12 14 14 12 11 11 10 9 8 8 7 8 8 7 7 8 8 6 4 2 1 0 0 1 3 3 2
8 7 8 9 10 10 9 8 8 9 9 9 9 7 7 8 10 11 11 11 10 9 8 7 6 6 7 8 8 7 8 8 6 4 2 1 0 0 0 2 4 4 3
6 6 6 7 7 6 5 4 5 5 6 8 7 7 7 8 7 7 8 8 8 8 7 7 7 7 8 8 8 7 7 6 5 2 1 0 0 0 0 1 2 3 3
5 5 5 5 5 4 2 2 2 3 3 4 4 5 7 7 6 6 6 5 5 5 6 8 9 9 9 9 7 6 5 6 5 3 1 0 0 0 0 0 1 1 1
2 2 3 2 2 1 0 0 1 1 1 1 2 4 6 7 6 6 5 4 4 5 6 7 8 9 9 9 7 6 5 5 4 2 1 0 0 0 0 0 1 0 0
0 1 1 0 0 0 0 0 0 0 0 0 1 2 5 6 6 6 5 5 5 6 6 6 7 7 7 6 6 5 5 4 3 1 0 0 0 0 0 0 0 0 0
0 0 0 0 0 0 0 0 0 0 0 0 0 1 4 5 5 5 5 6 6 6 6 6 6 5 4 3 3 4 5 5 4 1 0 0 0 0 0 0 0 0 0
1 0 0 0 1 2 2 1 0 0 0 0 0 0 1 2 3 3 3 5 7 7 6 6 6 5 3 1 1 2 4 5 4 2 1 0 0 0 0 0 0 0 0
2 1 0 2 4 5 5 4 1 0 0 0 0 0 0 0 1 2 3 4 6 6 6 6 6 5 3 1 0 1 3 4 3 2 2 1 1 0 0 0 0 0 0
3 2 1 3 5 6 6 5 2 0 0 0 0 0 0 1 2 3 5 5 5 4 4 5 5 4 3 1 0 1 2 3 2 2 1 1 0 0 0 0 0 0 0
4 3 3 4 6 7 7 5 1 0 0 0 0 0 1 2 4 5 7 6 4 3 3 3 2 2 2 1 0 1 2 2 1 0 0 0 0 0 0 0 0 0 0
4 5 5 6 6 6 6 3 1 0 0 0 0 0 1 2 4 6 6 6 4 3 3 2 1 1 1 0 0 1 1 1 0 0 0 0 0 0 0 0 0 0 0
2 4 5 6 6 6 4 2 1 2 1 1 1 1 2 2 3 5 5 4 3 2 2 1 0 0 0 0 0 0 0 0 0 0 0 0 0 0 0 0 0 0 0
1 2 3 5 6 5 3 3 3 3 3 2 3 3 3 3 3 3 3 1 1 1 1 0 0 0 0 0 0 0 0 0 0 0 0 0 0 0 0 0 0 0 0
0 1 1 2 4 4 3 4 5 4 3 3 3 4 3 3 3 2 1 0 0 0 0 0 0 0 0 0 0 0 0 0 0 0 0 0 0 0 0 0 0 0 0
0 0 0 1 2 3 3 3 4 4 3 2 2 2 1 1 1 1 0 0 0 0 0 0 0 0 0 0 0 0 0 0 0 0 0 0 0 0 0 0 0 0 0
0 1 1 1 1 1 2 3 3 3 3 2 1 1 0 0 0 0 0 0 0 0 0 0 0 0 0 0 0 0 0 0 0 0 0 0 0 0 0 0 0 0 0

GEFSMW_con_probscp_228.txt.gz
Probability
6 6 5 6 7 7 5 4 4 5 6 6 7 7 4 3 4 4 5 5 3 4 6 9 10 10 11 10 7 6 5 5 4 3 1 0 0 0 1 3 4 4 4
7 8 9 10 10 9 7 5 5 5 7 8 7 5 4 3 5 6 6 5 4 4 6 8 10 11 11 9 7 5 4 4 3 2 1 0 0 0 1 2 4 4 4
10 12 14 14 12 11 9 7 6 6 8 8 7 5 5 5 5 6 5 5 5 6 7 8 9 10 10 8 5 4 3 3 2 1 0 0 0 0 0 1 2 3 3
13 14 15 14 11 10 10 8 7 7 7 7 7 7 7 6 5 5 4 4 6 7 7 7 8 9 8 6 4 4 4 3 1 0 0 0 0 0 0 0 0 1 1
12 12 13 11 8 8 8 8 7 6 6 6 7 8 8 7 7 6 5 5 5 6 7 7 7 7 7 6 4 4 4 3 1 0 0 0 0 0 0 0 0 0 0
8 9 9 8 6 6 6 7 5 4 4 4 6 8 9 8 8 7 6 6 6 6 6 6 6 6 6 5 4 3 3 2 0 0 0 0 0 0 0 0 0 0 0
5 5 6 7 6 5 6 6 5 4 3 3 4 6 7 6 6 6 5 5 6 6 6 6 6 5 4 4 4 3 3 2 0 0 0 0 0 0 0 0 0 0 0
4 4 5 6 6 6 6 6 6 5 4 3 3 4 4 4 4 4 3 3 5 5 4 5 5 4 3 3 3 3 3 2 1 0 0 0 0 0 0 0 0 0 0
2 2 3 5 6 6 6 6 6 6 5 3 2 4 4 4 3 3 2 2 4 4 3 3 3 3 3 3 3 3 3 3 2 1 0 0 0 0 0 0 0 0 0
1 0 1 2 4 5 6 6 6 6 5 2 2 4 5 4 3 3 2 3 4 3 2 3 3 3 2 2 3 3 3 3 3 2 1 0 0 0 0 0 0 0 0
0 0 0 1 3 4 4 4 5 4 3 2 3 5 5 4 3 3 3 4 4 3 3 3 3 3 2 1 1 2 3 3 3 3 2 1 0 0 0 0 0 0 0
0 0 0 1 2 2 1 1 2 1 1 1 2 3 3 2 2 2 3 3 4 3 3 2 2 2 2 1 0 1 2 2 3 3 2 1 0 0 0 0 0 0 0
0 0 0 0 1 1 0 0 0 0 0 0 1 1 1 1 1 1 1 1 2 2 1 1 1 1 1 1 1 0 1 1 1 2 1 1 0 0 0 0 0 0 0
0 0 0 0 0 0 0 0 0 0 0 0 0 0 0 0 0 0 0 0 1 1 0 0 0 0 0 1 1 0 0 0 0 0 0 0 0 0 0 0 0 0 0
0 0 0 0 0 0 0 0 0 0 0 0 0 0 0 0 0 0 0 0 0 0 0 0 0 0 0 0 0 0 0 0 0 0 0 0 0 0 0 0 0 0 0
0 0 0 0 0 0 0 0 0 0 0 0 0 0 0 0 0 0 0 0 0 0 0 0 0 0 0 0 0 0 0 0 0 0 0 0 0 0 0 0 0 0 0
0 0 0 0 0 0 0 0 0 0 0 0 0 0 0 0 0 0 0 0 0 0 0 0 0 0 0 0 0 0 0 0 0 0 0 0 0 0 0 0 0 0 0
0 0 0 0 0 0 0 0 0 0 0 0 0 0 0 0 0 0 0 0 0 0 0 0 0 0 0 0 0 0 0 0 0 0 0 0 0 0 0 0 0 0 0
0 0 0 0 0 0 0 0 0 0 0 0 0 0 0 0 0 0 0 0 0 0 0 0 0 0 0 0 0 0 0 0 0 0 0 0 0 0 0 0 0 0 0
0 0 0 0 0 0 0 0 0 0 0 0 0 0 0 0 0 0 0 0 0 0 0 0 0 0 0 0 0 0 0 0 0 0 0 0 0 0 0 0 0 0 0
0 0 0 0 0 0 0 0 0 0 0 0 0 0 0 0 0 0 0 0 0 0 0 0 0 0 0 0 0 0 0 0 0 0 0 0 0 0 0 0 0 0 0
0 0 0 0 0 0 0 0 0 0 0 0 0 0 0 0 0 0 0 0 0 0 0 0 0 0 0 0 0 0 0 0 0 0 0 0 0 0 0 0 0 0 0
0 0 0 0 0 0 0 0 0 0 0 0 0 0 0 0 0 0 0 0 0 0 0 0 0 0 0 0 0 0 0 0 0 0 0 0 0 0 0 0 0 0 0
0 0 0 0 0 0 0 0 0 0 0 0 0 0 0 0 0 0 0 0 0 0 0 0 0 0 0 0 0 0 0 0 0 0 0 0 0 0 0 0 0 0 0
0 0 0 0 0 0 0 0 0 0 0 0 0 0 0 0 0 0 0 0 0 0 0 0 0 0 0 0 0 0 0 0 0 0 0 0 0 0 0 0 0 0 0
0 0 0 0 0 0 0 0 0 0 0 0 0 0 0 0 0 0 0 0 0 0 0 0 0 0 0 0 0 0 0 0 0 0 0 0 0 0 0 0 0 0 0

GEFSMW_con_probscp_234.txt.gz
Probability
4 4 4 5 6 6 4 3 2 1 0 0 0 0 0 0 0 1 3 5 5 4 3 3 3 3 3 3 3 3 4 5 6 6 6 6 4 3 3 3 3 3 3
4 5 6 6 6 5 4 3 2 0 0 0 1 1 1 0 0 1 2 4 5 4 3 3 3 3 3 3 3 3 3 4 6 6 6 5 3 3 3 3 2 3 3
5 6 6 5 5 5 4 3 2 1 0 1 2 3 3 2 2 1 1 2 4 5 3 2 2 3 3 3 3 3 3 4 5 6 5 3 2 2 3 3 3 2 2
5 6 5 4 5 5 4 3 2 1 0 1 3 4 4 4 3 2 1 0 2 3 3 2 2 3 3 4 4 4 3 4 5 6 5 2 0 1 2 3 3 2 1
5 5 4 4 4 4 3 2 1 0 1 2 3 3 4 4 3 2 1 0 0 1 1 1 2 2 3 4 4 4 4 4 5 6 4 1 0 0 1 1 2 1 0
3 4 4 3 2 2 2 1 0 1 2 3 3 3 3 3 3 2 1 0 0 0 0 0 1 1 1 1 2 3 4 4 4 5 3 1 0 0 0 0 0 0 0
2 3 4 3 1 1 1 0 0 1 2 2 2 2 1 2 3 2 1 0 0 0 0 1 1 1 0 0 0 1 3 3 4 4 3 1 0 0 0 0 0 0 0
1 3 4 3 2 1 1 1 1 0 1 1 1 1 1 2 3 2 1 0 0 0 0 1 2 1 0 0 0 0 1 2 3 4 3 1 1 0 0 0 0 0 0
1 1 1 1 1 2 2 2 2 1 0 0 0 0 0 1 3 2 1 0 0 0 0 1 2 2 0 0 0 0 1 1 2 2 2 2 2 1 1 0 0 0 0
0 0 0 0 0 1 2 3 2 1 0 0 0 0 0 1 2 2 1 0 0 0 0 1 2 1 0 0 0 0 0 0 0 1 1 1 2 2 2 1 0 0 0
0 0 0 0 0 0 1 2 1 0 0 0 0 0 0 1 3 2 1 0 0 0 0 1 1 0 1 1 1 0 0 0 0 0 0 0 1 1 1 1 0 0 0
0 0 0 0 0 0 0 0 0 0 0 0 0 0 1 2 3 2 1 0 0 0 0 0 0 0 1 2 2 1 0 0 0 0 0 0 0 0 0 0 0 0 0
0 0 0 0 0 0 0 0 0 0 0 0 0 0 1 2 2 1 0 0 0 0 0 0 0 0 1 1 2 1 0 0 0 0 0 0 0 0 0 0 0 0 0
0 0 0 0 0 0 0 0 0 0 0 0 0 0 0 1 1 0 0 0 0 0 0 0 0 0 0 0 1 1 0 0 0 0 0 0 0 0 0 0 0 0 0
0 0 0 0 0 0 0 0 0 0 0 0 0 0 0 0 0 0 0 0 0 0 0 0 0 0 0 0 0 0 0 0 0 0 0 0 0 0 0 0 0 0 0
0 0 0 0 0 0 0 0 0 0 0 0 0 0 0 0 0 0 0 0 0 0 0 0 0 0 0 0 0 0 0 0 0 0 0 0 0 0 0 0 0 0 0
0 0 0 0 0 0 0 0 0 0 0 0 0 0 0 0 0 0 0 0 0 0 0 0 0 0 0 0 0 0 0 0 0 0 0 0 0 0 0 0 0 0 0
0 0 0 0 0 0 0 0 0 0 0 0 0 0 0 0 0 0 0 0 0 0 0 0 0 0 0 0 0 0 0 0 0 0 0 0 0 0 0 0 0 0 0
0 0 0 0 0 0 0 0 0 0 0 0 0 0 0 0 0 0 0 0 0 0 0 0 0 0 0 0 0 0 0 0 0 0 0 0 0 0 0 0 0 0 0
0 0 0 0 0 0 0 0 0 0 0 0 0 0 0 0 0 0 0 0 0 0 0 0 0 0 0 0 0 0 0 0 0 0 0 0 0 0 0 0 0 0 0
0 0 0 0 0 0 0 0 0 0 0 0 0 0 0 0 0 0 0 0 0 0 0 0 0 0 0 0 0 0 0 0 0 0 0 0 0 0 0 0 0 0 0
0 0 0 0 0 0 0 0 0 0 0 0 0 0 0 0 0 0 0 0 0 0 0 0 0 0 0 0 0 0 0 0 0 0 0 0 0 0 0 0 0 0 0
0 0 0 0 0 0 0 0 0 0 0 0 0 0 0 0 0 0 0 0 0 0 0 0 0 0 0 0 0 0 0 0 0 0 0 0 0 0 0 0 0 0 0
0 0 0 0 0 0 0 0 0 0 0 0 0 0 0 0 0 0 0 0 0 0 0 0 0 0 0 0 0 0 0 0 0 0 0 0 0 0 0 0 0 0 0
0 0 0 0 0 0 0 0 0 0 0 0 0 0 0 0 0 0 0 0 0 0 0 0 0 0 0 0 0 0 0 0 0 0 0 0 0 0 0 0 0 0 0
0 0 0 0 0 0 0 0 0 0 0 0 0 0 0 0 0 0 0 0 0 0 0 0 0 0 0 0 0 0 0 0 0 0 0 0 0 0 0 0 0 0 0

GEFSMW_con_probscp_240.txt.gz
Probability
6 9 11 10 8 10 13 13 12 13 12 12 13 13 11 7 5 5 5 4 4 5 6 7 7 5 6 8 7 5 4 3 4 4 4 3 3 4 4 3 4 4 4
6 7 10 9 8 11 13 13 13 13 13 14 17 17 15 11 6 4 4 4 3 4 6 7 7 6 6 7 8 7 5 4 4 5 5 4 2 1 2 3 4 5 5
5 7 8 7 7 10 13 14 15 15 16 16 18 19 18 14 8 5 4 4 3 4 7 8 8 7 6 7 8 8 6 4 4 5 6 5 3 1 1 2 3 4 6
5 5 5 4 4 7 11 13 15 17 18 17 17 18 18 14 9 6 5 5 5 6 9 10 10 8 7 8 9 8 6 4 4 4 4 5 5 4 3 3 3 5 6
5 4 3 3 4 6 8 10 12 16 18 18 17 17 15 12 8 6 7 6 5 6 10 12 11 10 9 9 9 7 5 4 3 3 3 5 6 6 6 5 6 7 7
4 4 4 6 7 7 8 8 10 13 16 17 17 15 13 11 8 7 6 5 5 6 8 10 12 12 10 9 8 7 5 3 2 2 4 5 6 8 8 7 7 8 9
6 6 6 7 7 8 8 9 10 11 13 15 15 14 14 12 9 7 6 5 6 6 6 7 10 10 9 7 6 6 5 4 3 3 5 6 8 10 9 7 7 8 9
7 7 6 6 7 8 8 9 9 10 11 12 13 13 14 12 9 8 7 6 6 5 4 5 6 6 4 4 5 6 6 5 4 4 5 6 7 9 9 6 6 7 8
7 7 6 6 7 8 8 7 7 8 9 11 11 11 12 11 9 8 7 5 5 4 3 2 3 3 2 2 4 5 5 4 3 3 4 5 5 6 6 6 5 6 7
6 6 6 7 7 7 7 6 6 6 8 10 9 8 8 8 7 5 4 4 4 3 2 1 1 3 3 3 3 4 4 3 3 3 3 3 3 3 4 5 5 5 5
7 7 6 6 6 6 5 5 4 4 5 6 6 4 4 4 4 3 3 3 3 3 2 1 1 2 2 2 2 3 3 3 3 3 3 3 3 4 4 4 4 4 4
9 6 4 4 4 4 3 3 3 2 3 3 3 2 1 1 2 3 3 3 3 3 2 1 0 1 1 0 1 1 3 3 3 3 3 3 4 5 5 4 4 4 4
8 5 2 2 2 2 1 1 1 1 1 1 1 1 2 1 1 2 3 3 3 2 1 0 0 0 0 0 0 1 2 3 3 3 3 3 5 6 6 5 4 3 3
7 4 1 0 0 0 0 0 0 0 0 0 0 1 1 1 0 1 2 2 1 1 0 0 0 0 0 0 0 0 1 1 2 1 1 2 3 5 5 4 3 3 3
6 4 1 0 0 0 0 0 0 0 0 0 0 0 0 0 0 1 1 1 0 0 0 0 0 0 0 0 0 0 0 0 0 0 0 1 1 2 3 3 2 3 3
5 4 2 1 0 0 0 0 0 0 0 0 0 0 0 0 0 0 0 0 0 0 0 0 0 0 0 0 0 0 0 0 0 0 0 0 0 0 1 1 1 1 2
6 5 4 3 1 0 0 0 0 0 0 0 0 0 0 0 0 0 0 1 1 0 0 0 0 0 0 0 0 0 0 1 0 0 0 0 0 0 0 0 0 0 1
6 6 6 4 1 0 0 0 0 0 0 0 0 0 0 0 0 0 1 2 2 1 0 0 0 0 0 0 0 0 0 0 0 0 0 0 0 0 0 0 0 0 0
6 6 6 3 1 0 0 0 0 0 0 0 0 0 0 0 0 0 1 2 2 1 0 0 0 0 0 0 0 0 0 0 0 0 0 0 0 0 0 0 0 0 0
6 6 4 2 0 0 0 0 0 0 0 0 0 0 0 0 0 0 1 1 1 0 0 0 0 0 0 0 0 0 0 0 0 0 0 0 0 0 0 0 0 0 0
6 4 2 0 0 0 0 0 0 0 0 0 0 0 0 0 0 0 0 0 0 0 0 0 0 0 0 0 0 0 0 0 0 0 0 0 0 0 0 0 0 0 0
5 2 0 0 0 0 0 0 0 0 0 0 0 0 0 0 0 0 0 0 0 0 0 0 0 0 0 0 0 0 0 0 0 0 0 0 0 0 0 0 0 0 0
3 2 0 0 0 0 0 0 0 0 0 0 0 0 0 0 0 1 1 0 0 0 0 0 0 0 0 0 0 0 0 0 0 0 0 0 0 0 0 0 0 0 0
2 2 1 1 0 0 0 0 0 0 0 0 0 0 0 0 0 1 2 1 0 0 0 0 0 0 0 0 0 0 0 0 0 0 0 0 0 0 0 0 0 0 0
3 3 2 1 0 0 0 0 0 0 0 0 0 0 0 0 0 1 1 1 0 0 0 0 0 0 0 0 0 0 0 0 0 0 0 0 0 0 0 0 0 0 0
4 3 3 1 0 0 0 0 0 0 0 0 0 0 0 0 0 0 1 0 0 0 0 0 0 0 0 0 0 0 0 0 0 0 0 0 0 0 0 0 0 0 0

GEFSMW_con_probscp_246.txt.gz
Probability
22 23 24 27 32 35 35 34 34 35 31 26 27 29 27 23 17 14 15 18 19 18 18 18 18 17 16 14 12 10 9 9 10 8 6 5 5 4 6 9 9 9 9
25 27 27 27 31 35 35 33 33 34 33 31 33 34 30 24 17 14 15 17 18 16 16 17 16 16 15 13 12 11 9 8 8 7 6 6 5 4 5 7 8 9 9
27 28 28 28 30 34 35 33 34 35 35 35 36 35 31 24 18 16 17 17 15 14 14 15 14 14 14 13 12 11 8 6 5 5 6 6 6 5 4 5 6 8 8
24 25 25 26 30 34 36 36 35 36 34 33 33 31 28 24 21 19 18 16 15 13 13 13 13 13 12 11 9 8 6 4 3 3 4 5 6 6 4 4 5 7 7
19 19 20 23 29 33 36 37 36 34 31 29 29 28 25 24 23 22 19 16 15 14 12 13 13 13 12 9 6 5 4 4 4 4 3 2 3 5 4 3 5 6 7
16 15 16 21 26 31 33 33 33 31 28 26 25 24 23 23 23 22 19 16 15 13 12 13 13 13 12 10 7 5 4 4 5 5 3 1 2 3 4 4 4 5 7
14 14 15 20 26 30 30 28 27 27 25 23 21 20 20 21 21 19 17 15 14 13 13 12 13 13 12 11 8 6 5 5 6 6 5 4 3 4 6 5 4 4 4
13 13 16 21 26 29 28 25 23 23 23 22 20 19 18 17 16 16 15 14 13 13 12 13 13 13 12 11 9 7 6 6 6 5 6 7 6 7 8 7 5 4 4
12 14 18 24 27 28 27 25 23 21 22 22 21 19 17 15 13 13 13 13 12 11 12 12 12 13 12 11 10 8 7 7 6 5 6 8 9 8 8 7 6 5 5
14 16 21 26 28 27 26 25 23 19 18 18 17 16 15 13 11 10 10 11 10 10 10 10 10 11 11 11 10 8 7 8 7 6 7 9 9 8 7 6 6 6 6
17 20 23 25 25 23 20 19 18 15 12 12 12 13 12 11 9 7 8 9 9 8 8 7 7 8 9 9 9 7 7 7 8 8 7 7 8 7 7 6 6 6 6
18 20 22 22 21 17 13 11 11 11 9 8 9 11 10 9 8 7 7 8 7 6 5 4 4 5 6 6 6 5 4 5 6 7 7 6 6 7 7 6 6 6 4
17 19 20 20 18 14 9 7 7 8 7 6 7 8 9 8 8 8 7 6 5 4 4 3 3 3 4 3 3 2 2 3 4 6 7 6 6 7 6 6 6 6 5
17 19 19 19 17 15 10 6 5 6 5 4 4 5 6 6 6 7 6 5 5 5 5 4 5 4 3 1 1 1 1 2 4 5 6 6 6 6 5 3 4 6 6
17 19 19 19 19 17 13 7 5 5 3 3 2 3 3 3 3 4 5 6 6 6 6 7 8 7 3 1 0 0 0 1 2 4 4 4 4 5 3 2 1 3 5
17 19 19 19 19 18 13 8 6 4 2 1 1 1 1 1 1 1 3 5 6 8 9 10 10 8 3 0 0 0 0 0 0 1 1 1 1 2 2 1 0 0 1
17 18 19 19 19 18 15 9 5 3 1 0 0 0 0 0 0 0 1 4 7 11 12 12 10 7 2 0 0 0 0 0 0 0 0 0 0 1 1 1 1 1 0
16 18 19 20 20 20 17 10 4 1 0 0 0 0 0 0 0 0 1 4 8 12 13 11 9 6 2 0 0 0 0 0 1 1 0 0 0 0 0 1 2 2 1
16 17 18 19 21 22 18 12 6 2 0 0 0 0 0 0 0 1 3 6 9 10 10 8 7 5 2 0 0 0 0 0 2 2 1 0 0 0 0 1 2 2 2
15 16 16 19 22 23 20 14 9 6 3 1 0 1 1 1 1 3 5 7 8 8 7 7 6 5 2 0 0 0 0 0 1 2 1 0 0 0 0 0 1 1 1
15 15 16 19 23 23 20 16 13 11 7 4 3 4 4 2 2 4 6 8 7 7 6 6 6 5 2 0 0 0 0 0 0 0 0 0 0 0 0 0 0 0 0
15 15 16 20 22 22 20 17 15 14 11 9 8 8 6 3 2 3 6 7 7 6 6 5 4 3 1 0 0 0 0 0 0 0 0 0 0 0 0 0 0 0 0
14 14 15 17 19 19 18 17 15 13 13 13 12 10 7 5 3 4 4 5 6 6 5 3 1 1 0 0 0 0 0 0 0 0 0 0 0 0 0 0 0 0 0
13 13 13 14 15 15 15 14 12 11 11 12 12 10 8 7 6 5 4 5 6 6 4 2 0 0 0 0 0 0 0 0 0 0 0 0 0 0 0 0 0 0 0
14 13 13 13 13 13 12 10 9 9 10 12 11 8 6 6 5 4 4 4 5 4 3 2 0 0 0 0 0 0 0 0 0 0 0 0 0 0 0 1 1 1 1
14 14 14 13 12 11 10 8 9 9 11 12 10 6 4 4 2 2 3 3 2 2 1 1 0 0 0 0 0 0 0 0 0 0 0 0 0 0 0 1 2 2 2